Terminal Aerodrome Forecast
Issued by NWS Jackson, KY

Home | Current Version | Previous Version | Text Only | Print | Product List | Glossary On
Versions: 1 2 3 4 5 6 7 8 9 10 11 12 13 14 15 16 17 18 19 20 21 22 23
000
FTUS43 KJKL 191700 RRA
TAFJKL
TAF
KJKL 191746Z 1918/2018 VRB03KT P6SM VCSH BKN010 BKN025
     FM200300 VRB03KT 3SM BR BKN035
     FM201000 00000KT 1SM BR VV002 BKN035
     FM201300 VRB03KT P6SM BKN035=

USA.gov is the U.S. government's official web portal to all federal, state and local government web resources and services.